KC5TXI Weather Reports


time (UTC)temp
F
wind
direction
speed
knots
gust
knots
rain 1hr
in
rain 24hr
in
rain mn
in
humidity
%
barometer
mb
20220811233619 96 200 0.9 1.7 0.00 0.00 0.00 37 1010.6
20220811233119 95 139 0.0 0.9 0.00 0.00 0.00 37 1010.3
20220811232618 96 54 1.7 1.7 0.00 0.00 0.00 37 1010.5
20220811232117 96 104 2.6 2.6 0.00 0.00 0.00 36 1010.6
20220811231616 97 208 0.9 1.7 0.00 0.00 0.00 35 1010.7
20220811231115 98 34 3.5 4.3 0.00 0.00 0.00 35 1010.6
20220811230615 97 235 0.9 0.9 0.00 0.00 0.00 35 1010.8
20220811230113 98 228 0.9 0.9 0.00 0.00 0.00 35 1010.7
20220811225611 99 64 4.3 5.2 0.00 0.00 0.00 33 1010.6
20220811225110 99 135 1.7 2.6 0.00 0.00 0.00 34 1010.7
20220811224610 98 219 0.9 1.7 0.00 0.00 0.00 33 1010.9
20220811224109 99 156 1.7 1.7 0.00 0.00 0.00 33 1010.7
20220811223608 99 124 0.9 1.7 0.00 0.00 0.00 33 1010.8
20220811223107 99 113 1.7 1.7 0.00 0.00 0.00 33 1010.8
20220811222607 99 197 2.6 2.6 0.00 0.00 0.00 34 1010.8
20220811222106 99 171 1.7 1.7 0.00 0.00 0.00 33 1011.1
20220811221606 100 180 0.9 0.9 0.00 0.00 0.00 33 1010.8
20220811221106 99 80 2.6 4.3 0.00 0.00 0.00 32 1010.9
20220811220605 99 341 2.6 2.6 0.00 0.00 0.00 32 1011.0
20220811220103 99 131 2.6 2.6 0.00 0.00 0.00 33 1011.1
20220811215603 98 295 0.9 1.7 0.00 0.00 0.00 33 1011.0
20220811215101 98 114 0.9 1.7 0.00 0.00 0.00 33 1011.1
20220811214600 98 101 2.6 5.2 0.00 0.00 0.00 33 1011.2
20220811214100 99 96 2.6 4.3 0.00 0.00 0.00 33 1011.1
20220811213559 99 108 1.7 1.7 0.00 0.00 0.00 33 1011.3
20220811213058 98 127 0.9 1.7 0.00 0.00 0.00 34 1011.7
20220811212558 100 84 1.7 1.7 0.00 0.00 0.00 32 1011.6
20220811212056 100 274 2.6 2.6 0.00 0.00 0.00 32 1011.5
20220811211556 98 119 2.6 4.3 0.00 0.00 0.00 33 1011.9
20220811211056 99 172 3.5 4.3 0.00 0.00 0.00 32 1011.7
20220811210555 99 119 3.5 5.2 0.00 0.00 0.00 33 1011.7
20220811210054 98 49 4.3 5.2 0.00 0.00 0.00 35 1012.0
20220811205554 96 214 0.0 0.0 0.00 0.00 0.00 34 1012.0
20220811205052 96 223 0.9 1.7 0.00 0.00 0.00 35 1012.1
20220811204551 99 112 2.6 5.2 0.00 0.00 0.00 34 1012.1
20220811204052 99 163 2.6 2.6 0.00 0.00 0.00 36 1012.1
20220811203550 100 122 2.6 2.6 0.00 0.00 0.00 34 1012.2
20220811203050 99 189 2.6 2.6 0.00 0.00 0.00 34 1012.1
20220811202549 98 12 1.7 1.7 0.00 0.00 0.00 36 1012.5
20220811202047 100 89 0.0 0.9 0.00 0.00 0.00 36 1012.3
20220811201547 99 182 2.6 2.6 0.00 0.00 0.00 36 1012.4
20220811201046 100 259 0.9 0.9 0.00 0.00 0.00 34 1012.4
20220811200545 100 234 1.7 2.6 0.00 0.00 0.00 35 1012.6
20220811200045 99 331 2.6 2.6 0.00 0.00 0.00 31 1012.5
20220811195544 99 340 1.7 1.7 0.00 0.00 0.00 31 1012.9
20220811195043 100 283 3.5 5.2 0.00 0.00 0.00 32 1012.6
20220811194541 99 67 1.7 2.6 0.00 0.00 0.00 31 1012.7
20220811194039 98 163 0.0 0.0 0.00 0.00 0.00 34 1012.8
20220811193538 98 325 0.9 1.7 0.00 0.00 0.00 35 1013.0
20220811193037 98 334 3.5 5.2 0.00 0.00 0.00 35 1013.3
20220811192536 98 38 2.6 2.6 0.00 0.00 0.00 34 1013.2
20220811192035 98 149 2.6 2.6 0.00 0.00 0.00 35 1013.2
20220811191535 98 173 2.6 4.3 0.00 0.00 0.00 39 1013.5
20220811191035 99 164 0.9 1.7 0.00 0.00 0.00 38 1013.5
20220811190533 99 197 1.7 1.7 0.00 0.00 0.00 36 1013.5
20220811190033 98 119 5.2 6.1 0.00 0.00 0.00 37 1013.7
20220811185532 99 102 0.9 1.7 0.00 0.00 0.00 37 1013.8
20220811185031 98 254 0.9 0.9 0.00 0.00 0.00 37 1013.6
20220811184530 97 92 1.7 1.7 0.00 0.00 0.00 38 1013.6
20220811184029 98 325 3.5 4.3 0.00 0.00 0.00 37 1013.8
20220811183528 98 307 0.9 1.7 0.00 0.00 0.00 38 1014.1
20220811183028 97 207 0.9 1.7 0.00 0.00 0.00 38 1014.1
20220811182527 98 106 1.7 2.6 0.00 0.00 0.00 37 1013.8
20220811182026 96 261 2.6 2.6 0.00 0.00 0.00 41 1014.1
20220811181525 96 64 2.6 2.6 0.00 0.00 0.00 43 1014.0
20220811181023 95 346 2.6 4.3 0.00 0.00 0.00 44 1014.3
20220811180522 95 323 4.3 6.1 0.00 0.00 0.00 41 1014.2
20220811180021 95 328 1.7 1.7 0.00 0.00 0.00 45 1014.2
20220811175521 96 334 2.6 2.6 0.00 0.00 0.00 44 1014.3
20220811175019 95 258 0.9 0.9 0.00 0.00 0.00 46 1014.2
20220811174518 96 238 0.9 0.9 0.00 0.00 0.00 45 1014.5
20220811174017 96 268 2.6 2.6 0.00 0.00 0.00 45 1014.7
20220811173516 95 155 1.7 1.7 0.00 0.00 0.00 45 1014.6
20220811173015 95 273 1.7 2.6 0.00 0.00 0.00 46 1014.6
20220811172515 95 318 2.6 4.3 0.00 0.00 0.00 46 1014.7
20220811172014 95 186 1.7 1.7 0.00 0.00 0.00 48 1014.8
20220811171513 95 5 2.6 4.3 0.00 0.00 0.00 48 1014.9
20220811171012 95 351 0.9 0.9 0.00 0.00 0.00 49 1015.0
20220811170511 95 185 1.7 1.7 0.00 0.00 0.00 50 1015.0
20220811170011 93 22 0.9 1.7 0.00 0.00 0.00 51 1015.1
20220811165510 94 189 1.7 2.6 0.00 0.00 0.00 49 1014.8
20220811165008 93 240 0.0 0.9 0.00 0.00 0.00 52 1014.9
20220811164508 92 42 0.9 0.9 0.00 0.00 0.00 54 1014.9
20220811164006 94 182 0.0 0.9 0.00 0.00 0.00 51 1015.0
20220811163507 94 122 0.0 0.0 0.00 0.00 0.00 51 1014.9
20220811163005 94 197 0.0 0.9 0.00 0.00 0.00 50 1015.0
20220811162504 92 173 0.9 1.7 0.00 0.00 0.00 52 1015.1
20220811162003 92 333 1.7 1.7 0.00 0.00 0.00 55 1015.3
20220811161502 91 183 0.9 0.9 0.00 0.00 0.00 55 1015.1
20220811161000 90 92 1.7 1.7 0.00 0.00 0.00 56 1014.9
20220811160458 90 315 4.3 5.2 0.00 0.00 0.00 57 1015.1
20220811155957 91 328 1.7 1.7 0.00 0.00 0.00 58 1015.1
20220811155457 92 181 0.0 0.0 0.00 0.00 0.00 56 1015.1
20220811154956 90 197 0.0 0.0 0.00 0.00 0.00 57 1015.2
20220811154455 89 185 0.9 0.9 0.00 0.00 0.00 60 1015.1
20220811153953 89 223 0.9 1.7 0.00 0.00 0.00 61 1014.9
20220811153453 91 197 0.0 0.0 0.00 0.00 0.00 58 1015.3
20220811152952 90 127 0.0 0.9 0.00 0.00 0.00 58 1015.3
20220811152452 89 195 0.0 0.9 0.00 0.00 0.00 61 1015.3
20220811151951 88 219 0.0 0.0 0.00 0.00 0.00 63 1015.1
20220811151450 87 211 0.9 0.9 0.00 0.00 0.00 65 1015.1
20220811150950 88 204 0.9 0.9 0.00 0.00 0.00 63 1015.2
20220811150450 87 345 0.9 1.7 0.00 0.00 0.00 66 1015.3
20220811145950 88 210 1.7 1.7 0.00 0.00 0.00 63 1015.0
20220811145448 88 184 0.0 0.9 0.00 0.00 0.00 62 1015.3
20220811144947 87 200 0.0 0.0 0.00 0.00 0.00 65 1015.2
20220811144446 85 180 0.0 0.0 0.00 0.00 0.00 69 1015.4
20220811143946 85 286 0.9 0.9 0.00 0.00 0.00 68 1015.3
20220811143445 85 256 0.0 0.0 0.00 0.00 0.00 68 1015.4
20220811142944 86 196 0.0 0.9 0.00 0.00 0.00 69 1015.2
20220811142443 85 113 0.9 0.9 0.00 0.00 0.00 69 1015.1
20220811141942 85 171 0.9 0.9 0.00 0.00 0.00 69 1015.4
20220811141442 83 194 0.0 0.0 0.00 0.00 0.00 72 1015.2
20220811140941 83 12 0.9 0.9 0.00 0.00 0.00 72 1015.2
20220811140441 82 311 0.9 0.9 0.00 0.00 0.00 74 1015.2
20220811135940 82 308 0.9 1.7 0.00 0.00 0.00 74 1015.3
20220811135439 82 317 1.7 1.7 0.00 0.00 0.00 74 1015.3
20220811134938 83 142 0.9 0.9 0.00 0.00 0.00 74 1015.1
20220811134437 83 155 0.0 0.0 0.00 0.00 0.00 74 1015.1
20220811133937 83 155 0.0 0.0 0.00 0.00 0.00 76 1015.1
20220811133436 81 231 0.0 0.0 0.00 0.00 0.00 79 1015.0
20220811132935 80 197 0.0 0.0 0.00 0.00 0.00 81 1015.0
20220811132434 79 216 0.0 0.0 0.00 0.00 0.00 83 1015.1
20220811131933 78 211 0.0 0.0 0.00 0.00 0.00 84 1015.2
20220811131433 78 212 0.0 0.0 0.00 0.00 0.00 84 1015.0
20220811130932 78 170 0.0 0.0 0.00 0.00 0.00 86 1015.1
20220811130431 77 170 0.0 0.0 0.00 0.00 0.00 88 1015.1
20220811125930 75 220 0.0 0.0 0.00 0.00 0.00 92 1015.0
20220811125429 75 220 0.0 0.0 0.00 0.00 0.00 94 1014.9
20220811124929 75 220 0.0 0.0 0.00 0.00 0.00 94 1014.9
20220811124428 74 220 0.0 0.0 0.00 0.00 0.00 94 1014.9
20220811123928 74 220 0.0 0.0 0.00 0.00 0.00 94 1015.0
20220811123428 74 220 0.0 0.0 0.00 0.00 0.00 95 1015.0
20220811122926 74 220 0.0 0.0 0.00 0.00 0.00 95 1014.9
20220811122426 74 220 0.0 0.0 0.00 0.00 0.00 95 1014.9
20220811121925 74 220 0.0 0.0 0.00 0.00 0.00 94 1014.8
20220811121425 74 220 0.0 0.0 0.00 0.00 0.00 94 1014.8
20220811120924 74 220 0.0 0.0 0.00 0.00 0.00 94 1015.0
20220811120423 73 220 0.0 0.0 0.00 0.00 0.00 94 1015.0
20220811115923 73 220 0.0 0.0 0.00 0.00 0.00 94 1014.9
20220811115423 74 220 0.0 0.0 0.00 0.00 0.00 94 1014.9
20220811114922 73 220 0.0 0.0 0.00 0.00 0.00 94 1014.8
20220811114422 74 220 0.0 0.0 0.00 0.00 0.00 94 1014.9
20220811113921 73 220 0.0 0.0 0.00 0.00 0.00 94 1015.0
20220811113420 74 220 0.0 0.0 0.00 0.00 0.00 94 1014.9
20220811112919 74 220 0.0 0.0 0.00 0.00 0.00 94 1014.8
20220811112419 74 220 0.0 0.0 0.00 0.00 0.00 93 1014.8
20220811111919 74 220 0.0 0.0 0.00 0.00 0.00 93 1015.0
20220811111417 73 220 0.0 0.0 0.00 0.00 0.00 93 1014.5
20220811110916 74 220 0.0 0.0 0.00 0.00 0.00 93 1014.7
20220811110415 74 220 0.0 0.0 0.00 0.00 0.00 93 1014.5
20220811105914 74 220 0.0 0.0 0.00 0.00 0.00 93 1014.5
20220811105414 74 220 0.0 0.0 0.00 0.00 0.00 93 1014.8
20220811104913 74 220 0.0 0.0 0.00 0.00 0.00 93 1014.7
20220811104412 75 220 0.0 0.0 0.00 0.00 0.00 93 1014.6
20220811103912 75 221 0.0 0.0 0.00 0.00 0.00 93 1014.6
20220811103410 74 220 0.0 0.0 0.00 0.00 0.00 93 1014.6
20220811102908 74 220 0.0 0.0 0.00 0.00 0.00 93 1014.7
20220811102409 75 220 0.0 0.0 0.00 0.00 0.00 92 1014.7
20220811101907 75 220 0.0 0.0 0.00 0.00 0.00 92 1014.8
20220811101406 75 220 0.0 0.0 0.00 0.00 0.00 92 1014.5
20220811100905 75 220 0.0 0.0 0.00 0.00 0.00 92 1014.6
20220811100403 75 220 0.0 0.0 0.00 0.00 0.00 92 1014.6
20220811095903 75 218 0.0 0.9 0.00 0.00 0.00 92 1014.8
20220811095403 75 217 0.0 0.0 0.00 0.00 0.00 92 1014.8
20220811094901 75 217 0.0 0.0 0.00 0.00 0.00 92 1014.7
20220811094400 75 217 0.0 0.0 0.00 0.00 0.00 92 1014.6
20220811093859 75 217 0.0 0.0 0.00 0.00 0.00 91 1014.9
20220811093358 75 214 0.0 0.0 0.00 0.00 0.00 91 1014.8
20220811092856 75 210 0.0 0.0 0.00 0.00 0.00 91 1014.9
20220811092355 75 215 0.0 0.0 0.00 0.00 0.00 91 1014.9
20220811091854 75 224 0.0 0.0 0.00 0.00 0.00 91 1014.7
20220811091353 76 208 0.9 0.9 0.00 0.00 0.00 91 1015.3
20220811090852 76 235 0.0 0.0 0.00 0.00 0.00 91 1014.7
20220811090352 76 231 0.0 0.0 0.00 0.00 0.00 91 1014.9
20220811085851 76 216 0.0 0.0 0.00 0.00 0.00 91 1014.9
20220811085350 76 215 0.0 0.0 0.00 0.00 0.00 91 1014.6
20220811084849 76 209 0.0 0.0 0.00 0.00 0.00 91 1015.0
20220811084348 76 206 0.0 0.0 0.00 0.00 0.00 91 1014.7
20220811083848 75 215 0.0 0.0 0.00 0.00 0.00 91 1015.1
20220811083347 76 206 0.0 0.0 0.00 0.00 0.00 90 1015.0
20220811082845 76 215 0.0 0.0 0.00 0.00 0.00 90 1014.9
20220811082344 76 204 0.0 0.0 0.00 0.00 0.00 90 1014.8
20220811081844 76 180 0.0 0.0 0.00 0.00 0.00 90 1014.8
20220811081343 76 194 0.0 0.0 0.00 0.00 0.00 90 1014.6
20220811080844 76 210 0.0 0.0 0.00 0.00 0.00 90 1014.8
20220811080342 76 216 0.0 0.0 0.00 0.00 0.00 89 1014.8
20220811075841 76 213 0.0 0.0 0.00 0.00 0.00 89 1014.7
20220811075341 76 198 0.0 0.0 0.00 0.00 0.00 89 1014.7
20220811074840 76 204 0.9 0.9 0.00 0.00 0.00 89 1014.6
20220811074340 77 219 0.0 0.0 0.00 0.00 0.00 89 1014.6
20220811073839 77 210 0.9 0.9 0.00 0.00 0.00 88 1014.5
20220811073337 77 193 0.0 0.0 0.00 0.00 0.00 88 1014.5
20220811072836 77 204 0.9 0.9 0.00 0.00 0.00 88 1014.5
20220811072337 77 183 0.9 0.9 0.00 0.00 0.00 88 1014.6
20220811071835 77 204 0.0 0.9 0.00 0.00 0.00 88 1014.8
20220811071335 77 196 0.0 0.0 0.00 0.00 0.00 87 1014.4
20220811070835 77 196 0.0 0.0 0.00 0.00 0.00 87 1014.6
20220811070333 77 194 0.0 0.9 0.00 0.00 0.00 88 1014.8
20220811065832 77 180 0.0 0.0 0.00 0.00 0.00 88 1014.8
20220811065332 77 194 0.0 0.0 0.00 0.00 0.00 89 1015.0
20220811064831 77 208 0.0 0.0 0.00 0.00 0.00 89 1015.0
20220811064330 77 198 0.0 0.9 0.00 0.00 0.00 90 1014.8
20220811063830 77 215 0.0 0.0 0.00 0.00 0.00 90 1014.9
20220811063329 77 157 0.9 0.9 0.00 0.00 0.00 90 1015.1
20220811062828 77 194 0.0 0.0 0.00 0.00 0.00 91 1015.0
20220811062327 77 196 0.0 0.0 0.00 0.00 0.00 91 1015.2
20220811061826 77 198 0.0 0.0 0.00 0.00 0.00 91 1015.3
20220811061326 77 195 0.0 0.0 0.00 0.00 0.00 91 1015.3
20220811060825 77 195 0.0 0.0 0.00 0.00 0.00 91 1015.2
20220811060325 77 209 0.0 0.0 0.00 0.00 0.00 90 1015.2
20220811055824 78 208 0.0 0.0 0.00 0.00 0.00 90 1015.3
20220811055323 78 208 0.0 0.0 0.00 0.00 0.00 90 1015.4
20220811054822 78 200 0.0 0.0 0.00 0.00 0.00 90 1015.4
20220811054322 78 177 0.0 0.0 0.00 0.00 0.00 89 1015.5
20220811053820 78 193 0.0 0.0 0.00 0.00 0.00 89 1015.4
20220811053320 78 208 0.0 0.0 0.00 0.00 0.00 89 1015.1
20220811052821 78 198 0.0 0.9 0.00 0.00 0.00 88 1015.3
20220811052320 78 206 0.0 0.0 0.00 0.00 0.00 88 1015.0
20220811051819 78 191 0.0 0.0 0.00 0.00 0.00 88 1014.8
20220811051318 78 178 0.9 0.9 0.00 0.00 0.00 89 1015.1
20220811050817 78 165 0.9 0.9 0.00 0.00 0.00 89 1014.9
20220811050316 78 183 0.0 0.0 0.00 0.00 0.00 89 1015.0
20220811045814 78 182 0.0 0.9 0.00 0.03 0.03 90 1015.0
20220811045314 78 195 0.0 0.0 0.00 0.03 0.03 89 1014.9
20220811044812 78 205 0.0 0.0 0.00 0.03 0.03 89 1014.9
20220811044312 78 260 0.0 0.0 0.00 0.03 0.03 89 1015.1
20220811043812 78 209 0.0 0.0 0.00 0.03 0.03 88 1015.1
20220811043311 77 234 0.0 0.0 0.00 0.03 0.03 88 1015.2
20220811042811 77 199 0.0 0.0 0.00 0.03 0.03 89 1015.1
20220811042311 77 208 0.0 0.0 0.00 0.03 0.03 89 1015.2
20220811041810 77 177 0.0 0.0 0.00 0.03 0.03 89 1015.0
20220811041309 77 209 0.0 0.0 0.00 0.03 0.03 90 1014.9
20220811040808 77 259 0.9 0.9 0.00 0.03 0.03 90 1015.1
20220811040308 76 260 0.0 0.0 0.00 0.03 0.03 91 1014.8
20220811035807 76 234 0.0 0.0 0.00 0.03 0.03 90 1014.9
20220811035306 76 234 0.0 0.0 0.00 0.03 0.03 90 1014.9
20220811034806 77 233 0.0 0.0 0.00 0.03 0.03 90 1014.6
20220811034305 76 233 0.0 0.0 0.00 0.03 0.03 90 1014.3
20220811033805 76 234 0.0 0.0 0.00 0.03 0.03 90 1014.4
20220811033304 76 233 0.0 0.0 0.00 0.03 0.03 90 1014.5
20220811032803 76 233 0.0 0.0 0.00 0.03 0.03 90 1014.3
20220811032304 76 233 0.0 0.0 0.00 0.03 0.03 90 1014.2
20220811031802 76 233 0.0 0.0 0.00 0.03 0.03 90 1014.6
20220811031301 76 234 0.0 0.0 0.00 0.03 0.03 90 1014.4
20220811030801 76 234 0.0 0.0 0.00 0.03 0.03 89 1014.1
20220811030300 77 234 0.0 0.0 0.00 0.03 0.03 90 1014.3
20220811025758 77 234 0.0 0.0 0.00 0.03 0.03 90 1014.3
20220811025257 76 233 0.0 0.0 0.00 0.03 0.03 90 1014.1
20220811024756 76 233 0.0 0.0 0.00 0.03 0.03 90 1014.3
20220811024255 76 234 0.0 0.0 0.00 0.03 0.03 91 1014.0
20220811023754 76 233 0.0 0.0 0.00 0.03 0.03 91 1014.1
20220811023254 76 233 0.0 0.0 0.00 0.03 0.03 92 1014.0
20220811022752 76 233 0.0 0.0 0.00 0.03 0.03 92 1013.9
20220811022252 76 234 0.0 0.0 0.00 0.03 0.03 92 1013.8
20220811021753 77 234 0.0 0.0 0.00 0.03 0.03 92 1013.6
20220811021252 77 233 0.0 0.0 0.00 0.03 0.03 92 1013.4
20220811020751 77 234 0.0 0.0 0.00 0.03 0.03 92 1013.2
20220811020250 77 235 0.0 0.0 0.00 0.03 0.03 92 1013.1
20220811015749 76 235 0.0 0.0 0.00 0.03 0.03 92 1013.1
20220811015249 76 232 0.0 0.0 0.00 0.03 0.03 92 1013.1
20220811014748 77 218 0.0 0.0 0.00 0.03 0.03 92 1013.0
20220811014247 77 213 0.0 0.0 0.00 0.03 0.03 92 1013.0
20220811013747 77 208 0.0 0.0 0.00 0.03 0.03 92 1013.0
20220811013246 77 227 0.0 0.0 0.00 0.03 0.03 91 1013.3
20220811012744 77 226 0.0 0.0 0.00 0.03 0.03 91 1013.4
20220811012244 77 226 0.0 0.0 0.00 0.03 0.03 90 1013.5
20220811011742 77 230 0.0 0.0 0.00 0.03 0.03 89 1013.7
20220811011241 77 111 0.0 0.0 0.00 0.03 0.03 88 1013.7
20220811010740 77 111 0.0 0.0 0.00 0.03 0.03 88 1014.1
20220811010239 77 111 0.0 0.0 0.00 0.03 0.03 88 1014.1
20220811005738 77 149 0.9 0.9 0.00 0.03 0.03 89 1014.2
20220811005237 77 202 0.0 0.0 0.00 0.03 0.03 89 1014.4
20220811004736 77 199 0.0 0.0 0.00 0.03 0.03 90 1014.5
20220811004235 77 198 0.0 0.0 0.00 0.03 0.03 90 1014.5
20220811003733 77 200 0.0 0.0 0.00 0.03 0.03 90 1014.7
20220811003233 76 213 0.0 0.9 0.00 0.03 0.03 90 1014.8
20220811002733 76 200 0.0 0.0 0.00 0.03 0.03 90 1014.9
20220811002233 76 198 0.0 0.0 0.00 0.03 0.03 90 1015.0
20220811001733 76 217 0.0 0.0 0.00 0.03 0.03 90 1014.9
20220811001232 76 189 0.0 0.0 0.00 0.03 0.03 89 1014.9
20220811000731 76 68 0.9 1.7 0.07 0.03 0.03 89 1015.0
20220811000232 76 191 0.0 0.9 0.11 0.03 0.03 89 1015.4
20220810235731 76 233 0.0 0.0 0.04 0.02 0.02 88 1015.1
20220810235230 77 204 0.0 0.9 0.04 0.02 0.02 87 1015.3
20220810234729 77 224 0.0 0.9 0.11 0.02 0.02 84 1015.5
20220810234228 78 218 0.0 0.0 0.07 0.01 0.01 81 1015.6